Regional Weather Roundup
Issued by NWS

Home | Current Version | Previous Version | Graphics & Text | Print | Product List | Glossary On
Versions: 1 2 3 4 5 6 7 8 9 10 11 12 13 14 15 16 17 18 19 20 21 22 23 24 25 26 27 28 29 30 31 32 33 34 35 36 37 38 39 40 41 42 43 44 45 46 47 48 49 50
000
ASUS43 KOAX 011402
RWRNE

WEATHER ROUNDUP FOR NEBRASKA
NATIONAL WEATHER SERVICE OMAHA NE
900 AM CDT SUN MAY 01 2016

NOTES: SATELLITE DATA IS BEING USED TO AUGMENT CLOUD COVER ABOVE
       12000 FEET.
       "FAIR" INDICATES FEW OR NO CLOUDS BELOW 12,000 FEET WITH NO
       SIGNIFICANT WEATHER AND/OR OBSTRUCTIONS TO VISIBILITY.

  * THESE STATIONS DO NOT REPORT WEATHER SUCH AS RAIN...SNOW OR FOG.

NEZ001>004-019>022-054>056-011500-
NEBRASKA PANHANDLE

CITY           SKY/WX    TMP DP  RH WIND       PRES   REMARKS
SCOTTSBLUFF    CLOUDY    40  33  76 N12       30.31R WCI  33
ALLIANCE       CLOUDY    35  31  85 N12       30.27R WCI  27
CHADRON        CLOUDY    43  32  65 N10       30.31R
KIMBALL        CLOUDY    34  32  92 NW10      30.29R WCI  26
SIDNEY         CLOUDY    35  32  88 N13       30.28R WCI  26
$$

NEZ057>060-069>072-079>082-011500-
SOUTHWEST NEBRASKA

CITY           SKY/WX    TMP DP  RH WIND       PRES   REMARKS
NORTH PLATTE   CLOUDY    40  37  89 N12       30.18R WCI  33
IMPERIAL       PTSUNNY   40  37  89 N20       30.22R WCI  30
LEXINGTON      LGT RAIN  42  39  89 N22       30.14R
MCCOOK         CLOUDY    40  37  89 N14       30.18R WCI  32
$$

NEZ005>010-023>029-035>040-094-011500-
NORTH CENTRAL NEBRASKA

CITY           SKY/WX    TMP DP  RH WIND       PRES   REMARKS
VALENTINE      SUNNY     41  33  73 N12       30.24R
AINSWORTH      SUNNY     41  36  84 N17       30.21R
BROKEN BOW     LGT RAIN  41  39  93 N15       30.15R
ORD            LGT RAIN  42  39  89 N12       30.14R
$$

NEZ041-046>049-061>064-073>077-083>087-011500-
SOUTH CENTRAL NEBRASKA

CITY           SKY/WX    TMP DP  RH WIND       PRES   REMARKS
GRAND ISLAND   LGT RAIN  41  39  93 N17       30.11R
AURORA         CLOUDY    42  41  97 N21G28    30.09R
HASTINGS       LGT RAIN  41  38  89 N20G26    30.09R
KEARNEY *      CLOUDY    41  37  87 N17       30.12R
YORK           LGT RAIN  41  41 100 N20G26    30.07R
$$

NEZ011>018-030>034-042>045-011500-
NORTHEAST NEBRASKA

CITY           SKY/WX    TMP DP  RH WIND       PRES   REMARKS
NORFOLK        LGT RAIN  42  39  89 NE14      30.10R FOG
ALBION         DRIZZLE   42  40  94 N12G18    30.12R
BLAIR          LGT RAIN  44  42  95 N8        30.03R
COLUMBUS *     CLOUDY    43  34  70 N16G22    30.09R
FREMONT        CLOUDY    43  43  99 N9        30.05R FOG
TEKAMAH        LGT RAIN  44  42  93 N16       30.06R
$$

NEZ050>053-065>068-078-088>093-011500-
SOUTHEAST NEBRASKA

CITY           SKY/WX    TMP DP  RH WIND       PRES   REMARKS
LINCOLN        LGT RAIN  45  43  93 N14       30.04R FOG
OMAHA EPPLEY   DRIZZLE   45  44  97 N10       30.03R FOG
BEATRICE       CLOUDY    46  44  94 NE14G20   30.00R
FALLS CITY     CLOUDY    51  49  92 NE5       29.96R FOG
$$

NEZ044-045-051>053-067-011500-
OMAHA AREA

CITY           SKY/WX    TMP DP  RH WIND       PRES   REMARKS
OMAHA EPPLEY   DRIZZLE   45  44  97 N10       30.03R FOG
BLAIR          LGT RAIN  44  42  95 N8        30.03R
FREMONT        CLOUDY    43  43  99 N9        30.05R FOG
$$




USA.gov is the U.S. government's official web portal to all federal, state and local government web resources and services.